Oneill, NE

6:43 AM CST on February 20, 2017 (GMT -0600)
The O'Neill Municipal-Baker

Weather History for KONL - January, 2013

Change the Weather History Date:

Friday, January 4, 2013

  Actual Average Record
Temperature  
Mean Temperature 25 °F -  
Max Temperature 38 °F 28 °F 60 °F (2012)
Min Temperature 12 °F 7 °F -25 °F (1959)
Degree Days  
Heating Degree Days 40    
Moisture  
Dew Point 16 °F    
Average Humidity 67    
Maximum Humidity 85    
Minimum Humidity 41    
Precipitation  
Precipitation 0.00 in - - ()
Sea Level Pressure  
Sea Level Pressure 30.09 in    
Wind  
Wind Speed 6 mph (SW)    
Max Wind Speed 10 mph    
Max Gust Speed -    
Visibility 10 miles    
Events      
Averages and records for this station are not official NWS values.
T = Trace of Precipitation, MM = Missing Value Source: NWS Daily Summary

Daily Weather History Graph

Daily Weather History Graph

Search for Another Location

Airport or City:

Trip Planner

Search our weather history database for the weather conditions in past years. The results will help you decide how hot, cold, wet, or windy it might be!

Date:

Astronomy

Jan. 04, 2013 Rise Set
Actual Time 8:04 AM CST 5:15 PM CST
Civil Twilight 7:32 AM CST 5:47 PM CST
Nautical Twilight 6:57 AM CST 6:22 PM CST
Astronomical Twilight 6:23 AM CST 6:56 PM CST
Moon 12:00 AM CST (1/4) 11:38 AM CST (1/4)
Length of Visible Light 10h 14m
Length of Day
9h 11m
Waning Gibbous, 55% of the Moon is Illuminated
Jan 4
Waning Gibbous
Jan 4
Last Quarter
Jan 11
New
Jan 18
First Quarter
Jan 26
Full

Hourly Weather History & Observations

Time (CST) Temp. Windchill Dew Point Humidity Pressure Visibility Wind Dir Wind Speed Gust Speed Precip Events Conditions
12:15 AM 15.4 °F 3.0 °F 11.1 °F 83% 30.17 in 10.0 mi SW 10.4 mph - N/A   Clear
12:35 AM 16.2 °F 4.7 °F 11.1 °F 81% 30.16 in 10.0 mi SW 9.2 mph - N/A   Clear
12:55 AM 15.4 °F 4.6 °F 10.8 °F 82% 30.16 in 10.0 mi SW 8.1 mph - N/A   Clear
1:15 AM 14.4 °F 4.3 °F 9.7 °F 82% 30.15 in 10.0 mi SW 6.9 mph - N/A   Clear
1:35 AM 13.8 °F 4.9 °F 9.1 °F 82% 30.15 in 10.0 mi SW 5.8 mph - N/A   Clear
1:55 AM 12.9 °F 2.6 °F 8.6 °F 83% 30.14 in 10.0 mi SW 6.9 mph - N/A   Clear
2:15 AM 12.2 °F 2.9 °F 8.6 °F 85% 30.14 in 10.0 mi WSW 5.8 mph - N/A   Clear
2:35 AM 12.4 °F 3.1 °F 7.7 °F 82% 30.14 in 10.0 mi SW 5.8 mph - N/A   Clear
2:55 AM 13.6 °F 4.6 °F 8.4 °F 80% 30.14 in 10.0 mi WSW 5.8 mph - N/A   Clear
3:15 AM 14.5 °F 4.6 °F 8.6 °F 77% 30.14 in 10.0 mi WSW 6.9 mph - N/A   Clear
5:55 AM 16.5 °F 6.9 °F 7.7 °F 68% 30.12 in 10.0 mi WSW 6.9 mph - N/A   Clear
6:15 AM 16.7 °F 7.2 °F 7.9 °F 68% 30.11 in 10.0 mi WSW 6.9 mph - N/A   Clear
6:35 AM 16.7 °F 9.6 °F 8.1 °F 69% 30.12 in 10.0 mi WSW 4.6 mph - N/A   Clear
6:55 AM 17.6 °F 10.7 °F 8.6 °F 68% 30.12 in 10.0 mi WSW 4.6 mph - N/A   Clear
7:15 AM 17.6 °F 9.3 °F 8.2 °F 67% 30.12 in 10.0 mi West 5.8 mph - N/A   Clear
7:35 AM 17.6 °F 6.4 °F 8.1 °F 66% 30.12 in 10.0 mi West 9.2 mph - N/A   Clear
7:55 AM 18.1 °F 7.1 °F 8.4 °F 66% 30.12 in 10.0 mi WSW 9.2 mph - N/A   Clear
8:15 AM 16.2 °F 6.5 °F 7.7 °F 69% 30.13 in 10.0 mi WSW 6.9 mph - N/A   Clear
8:35 AM 17.6 °F 8.2 °F 8.4 °F 67% 30.13 in 10.0 mi WSW 6.9 mph - N/A   Clear
8:55 AM 19.2 °F 10.2 °F 9.5 °F 66% 30.13 in 10.0 mi WSW 6.9 mph - N/A   Clear
9:15 AM 20.1 °F 11.3 °F 10.4 °F 66% 30.13 in 10.0 mi West 6.9 mph - N/A   Clear
9:35 AM 21.7 °F 14.3 °F 10.9 °F 63% 30.14 in 10.0 mi West 5.8 mph - N/A   Clear
9:55 AM 23.9 °F 15.8 °F 12.4 °F 62% 30.14 in 10.0 mi WSW 6.9 mph - N/A   Clear
10:15 AM 26.2 °F 20.7 °F 13.5 °F 59% 30.14 in 10.0 mi WSW 4.6 mph - N/A   Clear
10:35 AM 27.5 °F 20.2 °F 14.2 °F 57% 30.14 in 10.0 mi West 6.9 mph - N/A   Clear
10:55 AM 29.3 °F 24.3 °F 15.8 °F 57% 30.15 in 10.0 mi West 4.6 mph - N/A   Clear
11:15 AM 30.4 °F 23.6 °F 17.1 °F 58% 30.14 in 10.0 mi WNW 6.9 mph - N/A   Clear
11:35 AM 31.6 °F 27.0 °F 18.7 °F 59% 30.14 in 10.0 mi NW 4.6 mph - N/A   Clear
11:55 AM 32.5 °F 28.1 °F 19.6 °F 59% 30.13 in 10.0 mi NNW 4.6 mph - N/A   Clear
12:15 PM 33.6 °F 30.6 °F 19.9 °F 57% 30.13 in 10.0 mi West 3.5 mph - N/A   Clear
12:35 PM 34.7 °F - 19.0 °F 53% 30.12 in 10.0 mi Calm Calm - N/A   Clear
12:55 PM 36.0 °F - 20.3 °F 53% 30.10 in 10.0 mi Calm Calm - N/A   Clear
1:15 PM 36.9 °F - 19.4 °F 49% 30.10 in 10.0 mi Calm Calm - N/A   Clear
1:35 PM 37.8 °F - 19.4 °F 48% 30.09 in 10.0 mi Calm Calm - N/A   Clear
1:55 PM 38.5 °F - 18.5 °F 45% 30.09 in 10.0 mi Calm Calm - N/A   Clear
2:15 PM 38.7 °F - 16.9 °F 41% 30.08 in 10.0 mi Calm Calm - N/A   Clear
2:35 PM 38.5 °F 35.0 °F 21.7 °F 51% 30.08 in 10.0 mi South 4.6 mph - N/A   Clear
2:55 PM 38.3 °F - 21.0 °F 50% 30.08 in 10.0 mi Calm Calm - N/A   Clear
3:15 PM 38.7 °F - 20.5 °F 48% 30.07 in 10.0 mi Calm Calm - N/A   Clear
3:35 PM 38.3 °F 35.9 °F 23.2 °F 55% 30.08 in 10.0 mi South 3.5 mph - N/A   Clear
3:55 PM 38.3 °F - 21.0 °F 50% 30.08 in 10.0 mi Calm Calm - N/A   Clear
4:15 PM 37.8 °F 35.3 °F 20.8 °F 51% 30.08 in 10.0 mi SSE 3.5 mph - N/A   Clear
4:35 PM 36.7 °F 32.9 °F 21.2 °F 54% 30.07 in 10.0 mi South 4.6 mph - N/A   Clear
4:55 PM 35.2 °F 31.2 °F 23.4 °F 62% 30.07 in 10.0 mi South 4.6 mph - N/A   Clear
5:15 PM 34.2 °F 30.0 °F 23.0 °F 64% 30.07 in 10.0 mi South 4.6 mph - N/A   Clear
5:35 PM 34.0 °F 31.0 °F 23.7 °F 66% 30.06 in 10.0 mi South 3.5 mph - N/A   Clear
5:55 PM 32.9 °F - 23.0 °F 67% 30.06 in 10.0 mi Calm Calm - N/A   Clear
6:15 PM 32.0 °F - 22.8 °F 69% 30.06 in 10.0 mi Calm Calm - N/A   Clear
6:35 PM 32.4 °F - 22.5 °F 67% 30.05 in 10.0 mi Calm Calm - N/A   Clear
6:55 PM 31.8 °F - 22.5 °F 68% 30.05 in 10.0 mi Calm Calm - N/A   Clear
7:15 PM 30.7 °F 27.3 °F 21.7 °F 69% 30.05 in 10.0 mi South 3.5 mph - N/A   Clear
7:35 PM 30.2 °F - 22.1 °F 72% 30.05 in 10.0 mi Calm Calm - N/A   Clear
7:55 PM 28.4 °F - 21.2 °F 74% 30.04 in 10.0 mi Calm Calm - N/A   Clear
8:15 PM 23.4 °F 14.3 °F 18.5 °F 82% 30.05 in 10.0 mi South 8.1 mph - N/A   Clear
8:35 PM 24.4 °F 16.5 °F 18.9 °F 79% 30.05 in 10.0 mi South 6.9 mph - N/A   Clear
8:55 PM 24.1 °F 16.0 °F 18.0 °F 77% 30.04 in 10.0 mi South 6.9 mph - N/A   Clear
9:15 PM 23.7 °F 16.6 °F 17.6 °F 77% 30.04 in 10.0 mi SSW 5.8 mph - N/A   Clear
9:35 PM 24.1 °F 17.0 °F 17.6 °F 76% 30.04 in 10.0 mi SSW 5.8 mph - N/A   Clear
9:55 PM 25.0 °F 20.7 °F 16.9 °F 71% 30.03 in 10.0 mi WSW 3.5 mph - N/A   Clear
10:15 PM 24.6 °F 18.8 °F 16.0 °F 70% 30.02 in 10.0 mi SW 4.6 mph - N/A   Clear
10:35 PM 23.9 °F - 16.0 °F 72% 30.01 in 10.0 mi Calm Calm - N/A   Clear
10:55 PM 18.3 °F 11.5 °F 13.5 °F 81% 30.02 in 10.0 mi South 4.6 mph - N/A   Clear
11:35 PM 20.1 °F - 15.1 °F 81% 30.00 in 10.0 mi Calm Calm - N/A   Clear
11:55 PM 20.5 °F - 14.9 °F 79% 30.00 in 10.0 mi Calm Calm - N/A   Clear